Tracking 19794 objects as of 22-Jul-2019
HD Live streaming from Space Station
objects crossing your sky now

WESTFORD NEEDLES

Track WESTFORD NEEDLES now!
10-day predictions
WESTFORD NEEDLES is classified as:


NORAD ID: 19051
Int'l Code: 1963-014EA
Perigee: 2,768.7 km
Apogee: 4,492.7 km
Inclination: 87.2 °
Period: 165.9 minutes
Semi major axis: 10001 km
RCS: 0.357 m2 (medium)
Launch date: May 9, 1963
Source: United States (US)
Launch site: AIR FORCE WESTERN TEST RANGE (AFWTR)
aabbcc
Your satellite tracking list
Your tracking list is empty




NASA's NSSDC Master Catalog

Two Line Element Set (TLE):
1 19051U 63014EA  19202.51778845 +.00000050 +00000-0 +14002-1 0  9992
2 19051 087.2103 043.2544 0861863 089.8538 280.0944 08.67944486224577
Source of the keplerian elements: AFSPC